Jasikovac, Bosnia and Herzegovina

10:02 PM CET on November 23, 2017 (GMT +0100)
Jasikovac

Weather History for 14474 - February, 2014

Change the Weather History Date:

Thursday, February 13, 2014

  Actual Average Record
Temperature  
Mean Temperature 48 °F -  
Max Temperature 54 °F - - ()
Min Temperature 41 °F - - ()
Degree Days  
Heating Degree Days 18    
Moisture  
Dew Point 42 °F    
Average Humidity 82    
Maximum Humidity 94    
Minimum Humidity 52    
Precipitation  
Precipitation 0.04 in - - ()
Sea Level Pressure  
Sea Level Pressure 29.90 in    
Wind  
Wind Speed 6 mph ()    
Max Wind Speed 14 mph    
Max Gust Speed -    
Visibility 7.4 miles    
Events Fog , Rain    
T = Trace of Precipitation, MM = Missing Value Source: Averaged Metar Reports

Daily Weather History Graph

Daily Weather History Graph

Search for Another Location

Airport or City:

Trip Planner

Search our weather history database for the weather conditions in past years. The results will help you decide how hot, cold, wet, or windy it might be!

Date:

Astronomy

Feb. 13, 2014 Rise Set
Actual Time 6:46 AM CET 5:16 PM CET
Civil Twilight 6:17 AM CET 5:45 PM CET
Nautical Twilight 5:44 AM CET 6:18 PM CET
Astronomical Twilight 5:12 AM CET 6:50 PM CET
Moon 4:07 PM CET (2/13) 5:30 AM CET (2/13)
Length of Visible Light 11h 27m
Length of Day
10h 29m
Waxing Gibbous, 98% of the Moon is Illuminated
Feb 13
Waxing Gibbous
Feb 15
Full
Feb 22
Last Quarter
Mar 1
New
Mar 8
First Quarter

Hourly Weather History & Observations

Time (CET) Temp. Windchill Dew Point Humidity Pressure Visibility Wind Dir Wind Speed Gust Speed Precip Events Conditions
12:00 AM 46.4 °F 45.2 °F 44.6 °F 93% 29.86 in 6.2 mi ESE 3.5 mph - N/A   Mostly Cloudy
12:30 AM 48.2 °F - 46.4 °F 93% 29.86 in 6.2 mi East 3.5 mph - N/A Rain Light Rain
1:00 AM 47 °F - 45 °F 89% 29.89 in 9 mi East 6.7 mph - - Rain Light Rain
1:00 AM 46.4 °F 43.5 °F 44.6 °F 93% 29.86 in 6.2 mi East 5.8 mph - N/A   Partly Cloudy
1:30 AM 44.6 °F 40.7 °F 42.8 °F 93% 29.86 in - East 6.9 mph - N/A   Clear
2:00 AM 46.4 °F 43.5 °F 44.6 °F 93% 29.86 in - East 5.8 mph - N/A   Clear
2:30 AM 46.4 °F 45.2 °F 44.6 °F 93% 29.86 in 6.2 mi NNW 3.5 mph - N/A   Scattered Clouds
3:00 AM 46.4 °F - 44.6 °F 93% 29.86 in 6.2 mi Variable 1.2 mph - N/A   Mostly Cloudy
3:30 AM 44.6 °F 40.7 °F 42.8 °F 93% 29.86 in 0.2 mi East 6.9 mph - N/A Fog Fog
4:00 AM 44 °F - 43 °F 94% 29.89 in 0 mi East 6.7 mph - - Fog Partial Fog
4:00 AM 44.6 °F 41.4 °F 42.8 °F 93% 29.86 in 0.9 mi East 5.8 mph - N/A   Mist
4:12 AM 44 °F - 43 °F 94% 29.89 in 0 mi East 6.7 mph - - Fog Partial Fog
4:30 AM 44.6 °F 42.2 °F 42.8 °F 93% 29.86 in 6.2 mi ENE 4.6 mph - N/A   Scattered Clouds
5:00 AM 46.4 °F 43.5 °F 44.6 °F 93% 29.89 in 6.2 mi East 5.8 mph - N/A   Scattered Clouds
5:30 AM 46.4 °F 42.9 °F 42.8 °F 87% 29.89 in 6.2 mi East 6.9 mph - N/A   Scattered Clouds
6:00 AM 44.6 °F 40.7 °F 42.8 °F 93% 29.89 in 6.2 mi East 6.9 mph - N/A   Scattered Clouds
6:30 AM 44.6 °F 40.7 °F 42.8 °F 93% 29.89 in 6.2 mi East 6.9 mph - N/A   Scattered Clouds
7:00 AM 44 °F - 42 °F 90% 29.93 in 19 mi East 6.7 mph - -   Mostly Cloudy
7:00 AM 44.6 °F 40.2 °F 42.8 °F 93% 29.89 in 6.2 mi East 8.1 mph - N/A   Mostly Cloudy
7:30 AM 46.4 °F 42.4 °F 42.8 °F 87% 29.92 in 6.2 mi East 8.1 mph - N/A   Mostly Cloudy
8:00 AM 46.4 °F 43.5 °F 42.8 °F 87% 29.92 in 6.2 mi ENE 5.8 mph - N/A   Mostly Cloudy
8:30 AM 46.4 °F 43.5 °F 42.8 °F 87% 29.92 in 6.2 mi ENE 5.8 mph - N/A Rain Light Rain Showers
9:00 AM 48.2 °F - 44.6 °F 87% 29.92 in 6.2 mi East 6.9 mph - N/A   Scattered Clouds
9:30 AM 50.0 °F - 44.6 °F 82% 29.92 in 6.2 mi East 5.8 mph - N/A   Scattered Clouds
10:00 AM 52 °F - 46 °F 75% 29.94 in 19 mi East 8.9 mph - -   Partly Cloudy
10:00 AM 51.8 °F - 46.4 °F 82% 29.92 in 6.2 mi East 9.2 mph - N/A   Scattered Clouds
10:30 AM 51.8 °F - 46.4 °F 82% 29.92 in 6.2 mi SE 10.4 mph - N/A   Scattered Clouds
11:00 AM 48.2 °F - 42.8 °F 82% 29.95 in 4.3 mi West 13.8 mph - N/A Rain Rain
11:30 AM 50.0 °F - 42.8 °F 76% 29.95 in 6.2 mi Variable 1.2 mph - N/A Rain Light Rain
12:00 PM 51.8 °F - 41.0 °F 67% 29.92 in 6.2 mi Calm Calm - N/A   Scattered Clouds
12:30 PM 51.8 °F - 42.8 °F 71% 29.92 in 6.2 mi Variable 2.3 mph - N/A   Scattered Clouds
1:00 PM 53 °F - 44 °F 62% 29.93 in 19 mi NW 4.5 mph - -   Partly Cloudy
1:00 PM 53.6 °F - 44.6 °F 72% 29.92 in 6.2 mi NW 4.6 mph - N/A   Scattered Clouds
1:30 PM 51.8 °F - 42.8 °F 71% 29.92 in 6.2 mi West 8.1 mph - N/A   Scattered Clouds
2:00 PM 51.8 °F - 44.6 °F 76% 29.92 in 6.2 mi West 8.1 mph - N/A   Scattered Clouds
2:30 PM 53.6 °F - 42.8 °F 67% 29.89 in 6.2 mi WSW 8.1 mph - N/A   Scattered Clouds
3:00 PM 53.6 °F - 39.2 °F 58% 29.89 in 6.2 mi WSW 6.9 mph - N/A   Partly Cloudy
3:30 PM 53.6 °F - 39.2 °F 58% 29.89 in 6.2 mi West 5.8 mph - N/A   Partly Cloudy
4:00 PM 53 °F - 41 °F 52% 29.91 in 19 mi WSW 6.7 mph - -   Scattered Clouds
4:00 PM 51.8 °F - 39.2 °F 62% 29.89 in 6.2 mi WSW 5.8 mph - N/A   Partly Cloudy
4:30 PM 51.8 °F - 39.2 °F 62% 29.89 in 6.2 mi West 4.6 mph - N/A   Partly Cloudy
5:00 PM 50.0 °F - 41.0 °F 71% 29.89 in - West 3.5 mph - N/A   Clear
5:30 PM 46.4 °F 45.2 °F 42.8 °F 87% 29.92 in - West 3.5 mph - N/A   Clear
6:00 PM 48.2 °F - 41.0 °F 76% 29.92 in 6.2 mi Variable 2.3 mph - N/A   Partly Cloudy
6:30 PM 44.6 °F 41.4 °F 41.0 °F 87% 29.92 in 6.2 mi East 5.8 mph - N/A   Partly Cloudy
7:00 PM 44 °F - 40 °F 80% 29.93 in 19 mi East 8.9 mph - -  
7:00 PM 44.6 °F 39.2 °F 39.2 °F 81% 29.92 in - East 10.4 mph - N/A   Clear
7:30 PM 44.6 °F 39.7 °F 39.2 °F 81% 29.92 in - East 9.2 mph - N/A   Clear
8:00 PM 44.6 °F 39.7 °F 39.2 °F 81% 29.92 in - East 9.2 mph - N/A   Clear
8:30 PM 42.8 °F 36.6 °F 39.2 °F 87% 29.89 in - East 11.5 mph - N/A   Clear
9:00 PM 41.0 °F 33.9 °F 39.2 °F 93% 29.89 in - East 12.7 mph - N/A   Clear
9:30 PM 42.8 °F 36.6 °F 37.4 °F 81% 29.89 in - East 11.5 mph - N/A   Clear
10:00 PM 44 °F - 38 °F 71% 29.91 in 19 mi East 11.2 mph - -  
10:00 PM 42.8 °F 37.0 °F 37.4 °F 81% 29.89 in - East 10.4 mph - N/A   Clear
10:30 PM 44.6 °F 39.7 °F 37.4 °F 76% 29.92 in - East 9.2 mph - N/A   Clear
11:00 PM 44.6 °F 38.8 °F 37.4 °F 76% 29.89 in 6.2 mi East 11.5 mph - N/A   Partly Cloudy
11:30 PM 44.6 °F 38.8 °F 37.4 °F 76% 29.89 in 6.2 mi East 11.5 mph - N/A   Partly Cloudy